^^
Saratoga-Weather Station Historical Data
Daily Summary for August 10, 2020 Units:  Metric    English   Both
Daily Weekly Monthly Yearly Custom
  High: Low: Average:
Temperature: 12.6 °C 5.4 °C 9.2 °C
Dew Point: 11.7 °C 4.1 °C 8.1 °C
Humidity: 95% 85% 93%
Wind Speed: 29km/h 0km/h 6.8km/h
Wind Gust: 30.6km/h - -
Wind- - WSW
Pressure: 1016.9 hPa 1010.5 hPa -
Precipitation: 10.7 mm    
Historical Graphs
 
 
Tabular Data for August 10, 2020
Time Temperature Dew Point Pressure Wind Wind Speed Wind Gust Humidity Rainfall Rate (Hourly) solar
00:04 6.3 °C 4.6 °C 1016.9 hPa SW 3.2 km/h 4.8 km/h 89% 0.0 mm 0 W/m2
00:09 6.3 °C 4.6 °C 1016.9 hPa East 3.2 km/h 12.9 km/h 89% 0.0 mm 0 W/m2
00:14 6.3 °C 4.6 °C 1016.9 hPa NNW 1.4 km/h 4.8 km/h 89% 0.0 mm 0 W/m2
00:19 6.3 °C 4.6 °C 1016.6 hPa NNW 3.2 km/h 8 km/h 89% 0.0 mm 0 W/m2
00:24 6.3 °C 4.6 °C 1016.6 hPa West 1.4 km/h 3.2 km/h 89% 0.0 mm 0 W/m2
00:29 6.3 °C 4.6 °C 1016.3 hPa East 4.7 km/h 11.3 km/h 89% 0.0 mm 0 W/m2
00:34 6.3 °C 4.6 °C 1016.3 hPa NNW 4.7 km/h 8 km/h 89% 0.0 mm 0 W/m2
00:39 6.3 °C 4.5 °C 1016.3 hPa WSW 7.9 km/h 8 km/h 88% 0.0 mm 0 W/m2
00:44 6.3 °C 4.5 °C 1015.6 hPa NW 3.2 km/h 4.8 km/h 88% 0.0 mm 0 W/m2
00:49 6.3 °C 4.5 °C 1015.9 hPa NNW 3.2 km/h 3.2 km/h 88% 0.0 mm 0 W/m2
00:54 6.3 °C 4.5 °C 1015.9 hPa NW 1.4 km/h 12.9 km/h 88% 0.0 mm 0 W/m2
00:59 6.4 °C 4.6 °C 1015.9 hPa NW 4.7 km/h 6.4 km/h 88% 0.0 mm 0 W/m2
01:04 6.4 °C 4.6 °C 1015.9 hPa WSW 4.7 km/h 12.9 km/h 88% 0.0 mm 0 W/m2
01:09 6.4 °C 4.6 °C 1015.9 hPa West 4.7 km/h 8 km/h 88% 0.0 mm 0 W/m2
01:14 6.4 °C 4.4 °C 1015.9 hPa NNW 7.9 km/h 11.3 km/h 87% 0.0 mm 0 W/m2
01:19 6.4 °C 4.4 °C 1015.9 hPa North 4.7 km/h 4.8 km/h 87% 0.0 mm 0 W/m2
01:24 6.4 °C 4.4 °C 1015.6 hPa WNW 6.4 km/h 9.7 km/h 87% 0.0 mm 0 W/m2
01:29 6.4 °C 4.4 °C 1015.6 hPa North 1.4 km/h 8 km/h 87% 0.0 mm 0 W/m2
01:35 6.4 °C 4.4 °C 1015.2 hPa West 1.4 km/h 6.4 km/h 87% 0.0 mm 0 W/m2
01:40 6.4 °C 4.4 °C 1015.6 hPa NW 13 km/h 12.9 km/h 87% 0.0 mm 0 W/m2
01:45 6.5 °C 4.5 °C 1015.6 hPa NW 3.2 km/h 8 km/h 87% 0.0 mm 0 W/m2
01:50 6.5 °C 4.5 °C 1015.2 hPa NW 4.7 km/h 12.9 km/h 87% 0.0 mm 0 W/m2
01:55 6.6 °C 4.4 °C 1014.9 hPa NW 4.7 km/h 6.4 km/h 86% 0.0 mm 0 W/m2
02:00 6.5 °C 4.5 °C 1014.9 hPa North 3.2 km/h 4.8 km/h 87% 0.0 mm 0 W/m2
02:05 6.5 °C 4.5 °C 1014.6 hPa NW 4.7 km/h 11.3 km/h 87% 0.0 mm 0 W/m2
02:10 6.5 °C 4.5 °C 1014.6 hPa West 4.7 km/h 9.7 km/h 87% 0.0 mm 0 W/m2
02:15 6.5 °C 4.3 °C 1014.6 hPa SSE 1.4 km/h 14.5 km/h 86% 0.0 mm 0 W/m2
02:20 6.5 °C 4.5 °C 1014.6 hPa ENE 1.4 km/h 6.4 km/h 87% 0.0 mm 0 W/m2
02:25 6.5 °C 4.5 °C 1014.6 hPa West 1.4 km/h 3.2 km/h 87% 0.0 mm 0 W/m2
02:30 6.6 °C 4.4 °C 1014.2 hPa WNW 6.4 km/h 8 km/h 86% 0.0 mm 0 W/m2
02:35 6.6 °C 4.4 °C 1014.2 hPa West 6.4 km/h 16.1 km/h 86% 0.0 mm 0 W/m2
02:40 6.6 °C 4.4 °C 1014.2 hPa NE 3.2 km/h 4.8 km/h 86% 0.0 mm 0 W/m2
02:45 6.6 °C 4.4 °C 1013.9 hPa NW 4.7 km/h 16.1 km/h 86% 0.0 mm 0 W/m2
02:50 6.6 °C 4.4 °C 1014.2 hPa NE 1.4 km/h 6.4 km/h 86% 0.0 mm 0 W/m2
02:55 6.6 °C 4.4 °C 1014.2 hPa NNW 3.2 km/h 14.5 km/h 86% 0.0 mm 0 W/m2
03:00 6.6 °C 4.4 °C 1014.2 hPa WNW 3.2 km/h 6.4 km/h 86% 0.0 mm 0 W/m2
03:06 6.7 °C 4.5 °C 1014.2 hPa Calm   3.2 km/h 86% 0.0 mm 0 W/m2
03:11 6.7 °C 4.4 °C 1014.6 hPa East 1.4 km/h 6.4 km/h 85% 0.0 mm 0 W/m2
03:16 6.7 °C 4.4 °C 1014.6 hPa NW 4.7 km/h 9.7 km/h 85% 0.0 mm 0 W/m2
03:21 6.7 °C 4.4 °C 1014.6 hPa WNW 3.2 km/h 6.4 km/h 85% 0.0 mm 0 W/m2
03:26 6.7 °C 4.4 °C 1014.6 hPa Calm   6.4 km/h 85% 0.0 mm 0 W/m2
03:31 6.7 °C 4.5 °C 1014.6 hPa South 3.2 km/h 11.3 km/h 86% 0.0 mm 0 W/m2
03:36 6.6 °C 4.4 °C 1014.2 hPa NE 3.2 km/h 4.8 km/h 86% 0.2 mm 0 W/m2
03:41 6.6 °C 4.4 °C 1014.2 hPa ENE 1.4 km/h 11.3 km/h 86% 0.2 mm 0 W/m2
03:46 6.4 °C 4.4 °C 1014.2 hPa NNW 3.2 km/h 6.4 km/h 87% 0.5 mm 0 W/m2
03:51 6.3 °C 4.5 °C 1013.9 hPa WNW 1.4 km/h 6.4 km/h 88% 0.5 mm 0 W/m2
03:56 6.3 °C 4.5 °C 1013.9 hPa NW 7.9 km/h 16.1 km/h 88% 0.5 mm 0 W/m2
04:01 6.2 °C 4.4 °C 1013.9 hPa ESE 1.4 km/h 11.3 km/h 88% 0.5 mm 0 W/m2
04:06 6.1 °C 4.4 °C 1013.9 hPa WNW 16.3 km/h 16.1 km/h 89% 0.8 mm 0 W/m2
04:11 6.1 °C 4.4 °C 1013.5 hPa NW 6.4 km/h 12.9 km/h 89% 1.0 mm 0 W/m2
04:16 6 °C 4.3 °C 1013.5 hPa WNW 11.1 km/h 25.7 km/h 89% 1.3 mm 0 W/m2
04:21 5.9 °C 4.2 °C 1013.5 hPa North 4.7 km/h 6.4 km/h 89% 1.5 mm 0 W/m2
04:26 5.8 °C 4.3 °C 1013.5 hPa North 1.4 km/h 19.3 km/h 90% 1.5 mm 0 W/m2
04:32 5.8 °C 4.3 °C 1013.2 hPa NE 4.7 km/h 8 km/h 90% 1.8 mm 0 W/m2
04:37 5.8 °C 4.3 °C 1013.2 hPa WNW 11.1 km/h 16.1 km/h 90% 1.8 mm 0 W/m2
04:42 5.7 °C 4.3 °C 1013.2 hPa ENE 3.2 km/h 19.3 km/h 91% 2.0 mm 0 W/m2
04:47 5.7 °C 4.3 °C 1012.9 hPa NNW 4.7 km/h 12.9 km/h 91% 2.3 mm 0 W/m2
04:52 5.6 °C 4.2 °C 1012.9 hPa NW 4.7 km/h 14.5 km/h 91% 2.0 mm 0 W/m2
04:57 5.6 °C 4.2 °C 1012.5 hPa NW 9.7 km/h 20.9 km/h 91% 2.3 mm 0 W/m2
05:02 5.5 °C 4.1 °C 1012.5 hPa West 3.2 km/h 9.7 km/h 91% 2.0 mm 0 W/m2
05:07 5.5 °C 4.1 °C 1012.2 hPa East 7.9 km/h 9.7 km/h 91% 1.8 mm 0 W/m2
05:12 5.5 °C 4.3 °C 1011.9 hPa NNE 3.2 km/h 8 km/h 92% 2.0 mm 0 W/m2
05:17 5.4 °C 4.2 °C 1011.9 hPa East 6.4 km/h 8 km/h 92% 1.8 mm 0 W/m2
05:22 5.4 °C 4.2 °C 1011.9 hPa NNE 4.7 km/h 12.9 km/h 92% 1.8 mm 0 W/m2
05:27 5.4 °C 4.2 °C 1011.9 hPa NNW 4.7 km/h 12.9 km/h 92% 1.5 mm 0 W/m2
05:32 5.4 °C 4.2 °C 1011.9 hPa NW 13 km/h 14.5 km/h 92% 1.5 mm 0 W/m2
05:37 5.4 °C 4.2 °C 1011.9 hPa SE 1.4 km/h 11.3 km/h 92% 1.5 mm 0 W/m2
05:42 5.4 °C 4.2 °C 1011.9 hPa ESE 4.7 km/h 17.7 km/h 92% 1.5 mm 0 W/m2
05:47 5.4 °C 4.2 °C 1011.9 hPa SSW 6.4 km/h 6.4 km/h 92% 1.3 mm 0 W/m2
05:52 5.4 °C 4.4 °C 1011.9 hPa WNW 1.4 km/h 9.7 km/h 93% 1.5 mm 0 W/m2
05:57 5.4 °C 4.4 °C 1011.9 hPa NNW 13 km/h 16.1 km/h 93% 1.5 mm 0 W/m2
06:02 5.4 °C 4.4 °C 1011.9 hPa NW 4.7 km/h 9.7 km/h 93% 1.5 mm 0 W/m2
06:07 5.4 °C 4.4 °C 1011.5 hPa NNW 1.4 km/h 6.4 km/h 93% 1.5 mm 0 W/m2
06:12 5.4 °C 4.4 °C 1011.5 hPa WNW 7.9 km/h 12.9 km/h 93% 1.5 mm 0 W/m2
06:17 5.4 °C 4.4 °C 1011.2 hPa South 4.7 km/h 6.4 km/h 93% 1.8 mm 0 W/m2
06:22 5.5 °C 4.5 °C 1011.5 hPa NNW 4.7 km/h 14.5 km/h 93% 1.5 mm 0 W/m2
06:27 5.5 °C 4.5 °C 1011.5 hPa West 4.7 km/h 11.3 km/h 93% 1.5 mm 0 W/m2
06:32 5.6 °C 4.6 °C 1011.5 hPa NNE 6.4 km/h 14.5 km/h 93% 1.8 mm 0 W/m2
06:37 5.6 °C 4.6 °C 1011.2 hPa WNW 3.2 km/h 9.7 km/h 93% 1.5 mm 0 W/m2
06:42 5.6 °C 4.7 °C 1011.2 hPa NNW 4.7 km/h 14.5 km/h 94% 1.5 mm 0 W/m2
06:47 5.6 °C 4.7 °C 1011.2 hPa SE 1.4 km/h 12.9 km/h 94% 1.5 mm 0 W/m2
06:52 5.7 °C 4.8 °C 1011.2 hPa WNW 4.7 km/h 12.9 km/h 94% 1.5 mm 0 W/m2
06:57 5.7 °C 4.8 °C 1010.8 hPa WNW 14.3 km/h 22.5 km/h 94% 1.3 mm 0 W/m2
07:02 5.7 °C 4.8 °C 1011.2 hPa NNW 7.9 km/h 9.7 km/h 94% 1.0 mm 0 W/m2
07:08 5.8 °C 4.9 °C 1011.2 hPa North 3.2 km/h 22.5 km/h 94% 1.3 mm 0 W/m2
07:13 5.9 °C 5 °C 1010.8 hPa NNW 1.4 km/h 8 km/h 94% 1.0 mm 0 W/m2
07:18 5.9 °C 5 °C 1011.2 hPa West 9.7 km/h 12.9 km/h 94% 1.0 mm 5 W/m2
07:23 6 °C 5.1 °C 1011.2 hPa NW 7.9 km/h 11.3 km/h 94% 0.8 mm 5 W/m2
07:28 6.1 °C 5.2 °C 1011.2 hPa ENE 4.7 km/h 9.7 km/h 94% 1.0 mm 7 W/m2
07:33 6.1 °C 5.2 °C 1011.2 hPa NNW 6.4 km/h 8 km/h 94% 0.8 mm 12 W/m2
07:38 6.2 °C 5.3 °C 1010.8 hPa SW 3.2 km/h 9.7 km/h 94% 1.0 mm 14 W/m2
07:43 6.2 °C 5.3 °C 1011.2 hPa WSW 22.7 km/h 22.5 km/h 94% 1.0 mm 19 W/m2
07:48 6.2 °C 5.3 °C 1011.2 hPa NNW 6.4 km/h 11.3 km/h 94% 1.0 mm 28 W/m2
07:53 6.3 °C 5.4 °C 1010.8 hPa NW 4.7 km/h 14.5 km/h 94% 1.3 mm 32 W/m2
07:58 6.4 °C 5.5 °C 1011.2 hPa WSW 11.1 km/h 16.1 km/h 94% 1.3 mm 33 W/m2
08:03 6.5 °C 5.6 °C 1011.2 hPa WSW 4.7 km/h 9.7 km/h 94% 1.0 mm 33 W/m2
08:08 6.6 °C 5.7 °C 1011.2 hPa NE 1.4 km/h 6.4 km/h 94% 1.0 mm 37 W/m2
08:13 6.6 °C 5.7 °C 1011.2 hPa NNE 6.4 km/h 6.4 km/h 94% 1.3 mm 42 W/m2
08:18 6.7 °C 5.8 °C 1010.8 hPa NNW 9.7 km/h 14.5 km/h 94% 1.0 mm 42 W/m2
08:23 6.7 °C 5.8 °C 1010.8 hPa SW 4.7 km/h 9.7 km/h 94% 1.0 mm 46 W/m2
08:28 6.8 °C 5.9 °C 1010.8 hPa NNE 3.2 km/h 14.5 km/h 94% 0.8 mm 47 W/m2
08:33 6.9 °C 6.2 °C 1010.8 hPa SE 6.4 km/h 8 km/h 95% 0.8 mm 56 W/m2
08:38 7 °C 6.3 °C 1010.8 hPa NE 7.9 km/h 12.9 km/h 95% 0.5 mm 56 W/m2
08:43 7.1 °C 6.2 °C 1010.8 hPa South 4.7 km/h 8 km/h 94% 0.5 mm 67 W/m2
08:48 7.1 °C 6.2 °C 1010.8 hPa NW 3.2 km/h 9.7 km/h 94% 0.5 mm 63 W/m2
08:53 7.2 °C 6.5 °C 1010.8 hPa WNW 6.4 km/h 12.9 km/h 95% 0.5 mm 70 W/m2
08:58 7.3 °C 6.4 °C 1010.8 hPa West 14.3 km/h 14.5 km/h 94% 0.5 mm 67 W/m2
09:04 7.3 °C 6.4 °C 1011.2 hPa West 9.7 km/h 9.7 km/h 94% 0.5 mm 65 W/m2
09:09 7.4 °C 6.5 °C 1011.2 hPa East 3.2 km/h 16.1 km/h 94% 0.5 mm 81 W/m2
09:14 7.5 °C 6.6 °C 1010.8 hPa West 3.2 km/h 9.7 km/h 94% 0.2 mm 69 W/m2
09:19 7.6 °C 6.7 °C 1010.8 hPa NW 11.1 km/h 14.5 km/h 94% 0.2 mm 100 W/m2
09:24 7.6 °C 6.7 °C 1010.8 hPa NW 6.4 km/h 8 km/h 94% 0.2 mm 97 W/m2
09:29 7.7 °C 6.8 °C 1010.8 hPa WNW 7.9 km/h 12.9 km/h 94% 0.2 mm 104 W/m2
09:34 7.8 °C 6.9 °C 1010.8 hPa WNW 6.4 km/h 20.9 km/h 94% 0.5 mm 105 W/m2
09:39 7.8 °C 7 °C 1010.8 hPa SSW 4.7 km/h 11.3 km/h 95% 0.2 mm 91 W/m2
09:44 7.9 °C 7 °C 1010.8 hPa WNW 7.9 km/h 19.3 km/h 94% 0.2 mm 113 W/m2
09:49 7.9 °C 7 °C 1010.8 hPa SW 3.2 km/h 6.4 km/h 94% 0.2 mm 125 W/m2
09:54 8.1 °C 7.2 °C 1010.8 hPa NNW 4.7 km/h 16.1 km/h 94% 0.2 mm 107 W/m2
09:59 8.1 °C 7.2 °C 1010.8 hPa NNW 7.9 km/h 14.5 km/h 94% 0.2 mm 102 W/m2
10:04 8.2 °C 7.3 °C 1010.8 hPa West 9.7 km/h 14.5 km/h 94% 0.2 mm 121 W/m2
10:09 8.2 °C 7.3 °C 1010.8 hPa NW 11.1 km/h 20.9 km/h 94% 0.5 mm 104 W/m2
10:14 8.3 °C 7.4 °C 1010.8 hPa South 7.9 km/h 12.9 km/h 94% 0.5 mm 81 W/m2
10:19 8.3 °C 7.4 °C 1010.8 hPa SW 6.4 km/h 19.3 km/h 94% 0.5 mm 111 W/m2
10:24 8.4 °C 7.5 °C 1010.8 hPa NNW 4.7 km/h 17.7 km/h 94% 0.5 mm 123 W/m2
10:29 8.4 °C 7.5 °C 1010.8 hPa North 4.7 km/h 16.1 km/h 94% 0.5 mm 132 W/m2
10:34 8.5 °C 7.7 °C 1010.8 hPa SW 9.7 km/h 14.5 km/h 95% 0.2 mm 116 W/m2
10:39 8.6 °C 7.7 °C 1010.8 hPa NW 6.4 km/h 16.1 km/h 94% 0.5 mm 146 W/m2
10:44 8.7 °C 7.8 °C 1010.8 hPa ENE 6.4 km/h 17.7 km/h 94% 0.5 mm 179 W/m2
10:49 8.8 °C 7.9 °C 1010.8 hPa NW 4.7 km/h 6.4 km/h 94% 0.5 mm 183 W/m2
10:54 8.9 °C 8 °C 1010.8 hPa WNW 7.9 km/h 17.7 km/h 94% 0.5 mm 172 W/m2
10:59 8.9 °C 8 °C 1010.8 hPa WNW 4.7 km/h 16.1 km/h 94% 0.5 mm 183 W/m2
11:04 9.1 °C 8.2 °C 1010.8 hPa WNW 16.3 km/h 29 km/h 94% 0.5 mm 183 W/m2
11:09 9.1 °C 8.2 °C 1010.8 hPa North 3.2 km/h 20.9 km/h 94% 0.5 mm 151 W/m2
11:14 9.2 °C 8.3 °C 1010.8 hPa WNW 29 km/h 29 km/h 94% 0.5 mm 158 W/m2
11:19 9.2 °C 8.3 °C 1010.8 hPa ESE 3.2 km/h 20.9 km/h 94% 0.5 mm 162 W/m2
11:24 9.2 °C 8.3 °C 1010.8 hPa NNW 6.4 km/h 22.5 km/h 94% 0.5 mm 172 W/m2
11:29 9.3 °C 8.4 °C 1010.8 hPa NW 4.7 km/h 9.7 km/h 94% 0.5 mm 179 W/m2
11:34 9.3 °C 8.4 °C 1010.8 hPa NNE 1.4 km/h 9.7 km/h 94% 0.5 mm 163 W/m2
11:39 9.3 °C 8.4 °C 1010.8 hPa North 6.4 km/h 20.9 km/h 94% 0.5 mm 211 W/m2
11:44 9.3 °C 8.4 °C 1011.2 hPa NW 7.9 km/h 20.9 km/h 94% 0.5 mm 167 W/m2
11:49 9.4 °C 8.5 °C 1011.2 hPa NNE 1.4 km/h 12.9 km/h 94% 0.5 mm 162 W/m2
11:54 9.4 °C 8.5 °C 1011.2 hPa NW 3.2 km/h 14.5 km/h 94% 0.5 mm 118 W/m2
11:59 9.4 °C 8.5 °C 1010.8 hPa WNW 7.9 km/h 12.9 km/h 94% 1.0 mm 137 W/m2
12:04 9.4 °C 8.5 °C 1010.8 hPa WNW 3.2 km/h 17.7 km/h 94% 0.8 mm 167 W/m2
12:09 9.5 °C 8.6 °C 1011.2 hPa WSW 6.4 km/h 8 km/h 94% 1.0 mm 204 W/m2
12:14 9.6 °C 8.7 °C 1011.2 hPa West 9.7 km/h 20.9 km/h 94% 1.0 mm 202 W/m2
12:19 9.6 °C 8.8 °C 1010.8 hPa NW 6.4 km/h 9.7 km/h 95% 1.0 mm 172 W/m2
12:24 9.7 °C 8.9 °C 1010.8 hPa NW 6.4 km/h 11.3 km/h 95% 1.0 mm 146 W/m2
12:29 9.7 °C 8.8 °C 1011.2 hPa WNW 7.9 km/h 12.9 km/h 94% 1.3 mm 192 W/m2
12:34 9.8 °C 9 °C 1010.8 hPa North 6.4 km/h 9.7 km/h 95% 1.3 mm 230 W/m2
12:39 9.9 °C 9.1 °C 1010.8 hPa South 1.4 km/h 11.3 km/h 95% 1.0 mm 250 W/m2
12:44 10 °C 9.2 °C 1010.8 hPa WSW 6.4 km/h 12.9 km/h 95% 1.0 mm 209 W/m2
12:49 10 °C 9.2 °C 1010.8 hPa West 3.2 km/h 20.9 km/h 95% 1.0 mm 195 W/m2
12:55 10.1 °C 9.3 °C 1010.8 hPa West 6.4 km/h 12.9 km/h 95% 1.0 mm 193 W/m2
13:00 10.1 °C 9.3 °C 1010.8 hPa WNW 3.2 km/h 19.3 km/h 95% 0.5 mm 174 W/m2
13:05 10.1 °C 9.3 °C 1010.8 hPa West 4.7 km/h 14.5 km/h 95% 0.5 mm 216 W/m2
13:10 10.1 °C 9.2 °C 1010.8 hPa NNW 3.2 km/h 19.3 km/h 94% 0.5 mm 227 W/m2
13:15 10.2 °C 9.4 °C 1010.8 hPa NNW 13 km/h 14.5 km/h 95% 0.5 mm 234 W/m2
13:20 10.2 °C 9.3 °C 1010.8 hPa NNW 9.7 km/h 19.3 km/h 94% 0.5 mm 195 W/m2
13:25 10.3 °C 9.5 °C 1010.8 hPa NNW 1.4 km/h 14.5 km/h 95% 0.5 mm 209 W/m2
13:30 10.4 °C 9.6 °C 1010.8 hPa NW 20.9 km/h 24.1 km/h 95% 0.5 mm 171 W/m2
13:35 10.4 °C 9.5 °C 1010.8 hPa NW 1.4 km/h 6.4 km/h 94% 0.5 mm 211 W/m2
13:40 10.4 °C 9.5 °C 1010.8 hPa WSW 1.4 km/h 8 km/h 94% 0.5 mm 188 W/m2
13:45 10.6 °C 9.7 °C 1010.8 hPa West 11.1 km/h 17.7 km/h 94% 0.5 mm 186 W/m2
13:50 10.6 °C 9.7 °C 1010.5 hPa WNW 4.7 km/h 19.3 km/h 94% 0.2 mm 188 W/m2
13:55 10.7 °C 9.9 °C 1010.8 hPa NW 3.2 km/h 11.3 km/h 95% 0.2 mm 171 W/m2
14:00 10.7 °C 9.9 °C 1010.8 hPa WSW 6.4 km/h 22.5 km/h 95% 0.2 mm 218 W/m2
14:05 10.7 °C 9.9 °C 1010.5 hPa ENE 3.2 km/h 6.4 km/h 95% 0.2 mm 192 W/m2
14:10 10.8 °C 10 °C 1010.5 hPa NNW 4.7 km/h 22.5 km/h 95% 0.2 mm 197 W/m2
14:15 10.8 °C 10 °C 1010.5 hPa WNW 4.7 km/h 6.4 km/h 95% 0.5 mm 188 W/m2
14:20 10.8 °C 10 °C 1010.5 hPa West 13 km/h 16.1 km/h 95% 0.5 mm 195 W/m2
14:25 10.9 °C 10.1 °C 1010.5 hPa WNW 4.7 km/h 11.3 km/h 95% 0.2 mm 186 W/m2
14:30 10.9 °C 10.1 °C 1010.5 hPa NNW 3.2 km/h 11.3 km/h 95% 0.2 mm 165 W/m2
14:35 10.9 °C 10.1 °C 1010.5 hPa SSE 4.7 km/h 9.7 km/h 95% 0.5 mm 160 W/m2
14:41 11 °C 10.2 °C 1010.5 hPa NW 14.3 km/h 16.1 km/h 95% 0.5 mm 151 W/m2
14:46 11 °C 10.2 °C 1010.5 hPa WNW 14.3 km/h 24.1 km/h 95% 0.5 mm 116 W/m2
14:51 11.1 °C 10.3 °C 1010.5 hPa WNW 6.4 km/h 17.7 km/h 95% 0.5 mm 120 W/m2
14:56 11.1 °C 10.3 °C 1010.8 hPa NNW 7.9 km/h 24.1 km/h 95% 0.5 mm 125 W/m2
15:01 11.1 °C 10.3 °C 1010.8 hPa West 3.2 km/h 12.9 km/h 95% 0.5 mm 134 W/m2
15:06 11.2 °C 10.4 °C 1010.8 hPa NW 4.7 km/h 6.4 km/h 95% 0.5 mm 121 W/m2
15:11 11.2 °C 10.4 °C 1010.5 hPa West 3.2 km/h 19.3 km/h 95% 0.5 mm 139 W/m2
15:16 11.2 °C 10.4 °C 1010.5 hPa SW 3.2 km/h 20.9 km/h 95% 0.2 mm 179 W/m2
15:21 11.3 °C 10.5 °C 1010.5 hPa WNW 9.7 km/h 14.5 km/h 95% 0.2 mm 156 W/m2
15:26 11.3 °C 10.5 °C 1010.8 hPa WNW 11.1 km/h 16.1 km/h 95% 0.2 mm 114 W/m2
15:31 11.3 °C 10.5 °C 1010.8 hPa SW 9.7 km/h 19.3 km/h 95% 0.2 mm 56 W/m2
15:36 11.3 °C 10.5 °C 1010.8 hPa WSW 4.7 km/h 8 km/h 95% 0.0 mm 74 W/m2
15:41 11.3 °C 10.5 °C 1010.5 hPa NW 6.4 km/h 9.7 km/h 95% 0.2 mm 65 W/m2
15:46 11.3 °C 10.5 °C 1010.8 hPa WNW 6.4 km/h 12.9 km/h 95% 0.2 mm 51 W/m2
15:51 11.3 °C 10.5 °C 1010.5 hPa NNW 9.7 km/h 17.7 km/h 95% 0.2 mm 56 W/m2
15:56 11.3 °C 10.5 °C 1010.5 hPa NNW 13 km/h 12.9 km/h 95% 0.2 mm 51 W/m2
16:01 11.3 °C 10.5 °C 1010.5 hPa NW 7.9 km/h 12.9 km/h 95% 0.2 mm 47 W/m2
16:06 11.3 °C 10.5 °C 1010.8 hPa West 13 km/h 20.9 km/h 95% 0.2 mm 53 W/m2
16:11 11.3 °C 10.5 °C 1010.8 hPa NNW 13 km/h 17.7 km/h 95% 0.2 mm 60 W/m2
16:16 11.4 °C 10.6 °C 1010.8 hPa WSW 14.3 km/h 20.9 km/h 95% 0.2 mm 58 W/m2
16:21 11.4 °C 10.6 °C 1010.8 hPa WSW 4.7 km/h 19.3 km/h 95% 0.2 mm 72 W/m2
16:26 11.4 °C 10.6 °C 1010.8 hPa WNW 3.2 km/h 16.1 km/h 95% 0.2 mm 74 W/m2
16:31 11.4 °C 10.6 °C 1010.8 hPa NNW 4.7 km/h 16.1 km/h 95% 0.2 mm 67 W/m2
16:36 11.5 °C 10.7 °C 1010.8 hPa West 6.4 km/h 11.3 km/h 95% 0.2 mm 65 W/m2
16:41 11.5 °C 10.7 °C 1010.8 hPa NW 6.4 km/h 14.5 km/h 95% 0.0 mm 67 W/m2
16:46 11.6 °C 10.8 °C 1010.5 hPa NW 6.4 km/h 12.9 km/h 95% 0.0 mm 69 W/m2
16:51 11.6 °C 10.8 °C 1010.5 hPa WNW 4.7 km/h 16.1 km/h 95% 0.0 mm 60 W/m2
16:56 11.6 °C 10.8 °C 1010.8 hPa NW 13 km/h 16.1 km/h 95% 0.0 mm 60 W/m2
17:01 11.6 °C 10.8 °C 1010.8 hPa NW 1.4 km/h 11.3 km/h 95% 0.0 mm 40 W/m2
17:06 11.7 °C 10.9 °C 1010.8 hPa NW 16.3 km/h 16.1 km/h 95% 0.0 mm 35 W/m2
17:11 11.7 °C 10.9 °C 1010.8 hPa WSW 6.4 km/h 16.1 km/h 95% 0.0 mm 39 W/m2
17:16 11.7 °C 10.9 °C 1010.8 hPa West 11.1 km/h 16.1 km/h 95% 0.0 mm 47 W/m2
17:21 11.7 °C 10.9 °C 1010.8 hPa WNW 7.9 km/h 20.9 km/h 95% 0.0 mm 37 W/m2
17:26 11.7 °C 10.9 °C 1010.8 hPa WNW 7.9 km/h 24.1 km/h 95% 0.0 mm 33 W/m2
17:31 11.8 °C 11 °C 1010.8 hPa WNW 6.4 km/h 11.3 km/h 95% 0.0 mm 30 W/m2
17:36 11.8 °C 11 °C 1010.8 hPa WNW 3.2 km/h 22.5 km/h 95% 0.0 mm 23 W/m2
17:41 11.8 °C 11 °C 1010.5 hPa WNW 19.5 km/h 20.9 km/h 95% 0.0 mm 21 W/m2
17:46 11.8 °C 11 °C 1010.8 hPa WNW 14.3 km/h 22.5 km/h 95% 0.0 mm 18 W/m2
17:51 11.8 °C 11 °C 1010.8 hPa WNW 3.2 km/h 19.3 km/h 95% 0.0 mm 21 W/m2
17:56 11.8 °C 11 °C 1010.8 hPa West 9.7 km/h 22.5 km/h 95% 0.0 mm 12 W/m2
18:01 11.8 °C 11 °C 1010.8 hPa WSW 11.1 km/h 19.3 km/h 95% 0.0 mm 11 W/m2
18:06 11.8 °C 11 °C 1010.8 hPa WNW 13 km/h 14.5 km/h 95% 0.0 mm 7 W/m2
18:11 11.8 °C 11 °C 1011.2 hPa West 9.7 km/h 19.3 km/h 95% 0.0 mm 7 W/m2
18:16 11.8 °C 11 °C 1011.2 hPa SW 4.7 km/h 12.9 km/h 95% 0.2 mm 5 W/m2
18:21 11.8 °C 11 °C 1011.5 hPa West 9.7 km/h 19.3 km/h 95% 0.2 mm 0 W/m2
18:26 11.8 °C 11 °C 1011.5 hPa West 4.7 km/h 14.5 km/h 95% 0.2 mm 0 W/m2
18:31 11.8 °C 11 °C 1011.5 hPa West 1.4 km/h 19.3 km/h 95% 0.2 mm 0 W/m2
18:36 11.8 °C 11 °C 1011.2 hPa NW 4.7 km/h 19.3 km/h 95% 0.2 mm 0 W/m2
18:41 11.8 °C 11 °C 1011.5 hPa West 11.1 km/h 16.1 km/h 95% 0.2 mm 0 W/m2
18:46 11.8 °C 11 °C 1011.5 hPa WSW 4.7 km/h 16.1 km/h 95% 0.2 mm 0 W/m2
18:51 11.8 °C 11 °C 1011.5 hPa WSW 6.4 km/h 14.5 km/h 95% 0.2 mm 0 W/m2
18:56 11.8 °C 11 °C 1011.9 hPa NW 7.9 km/h 16.1 km/h 95% 0.2 mm 0 W/m2
19:01 11.8 °C 11 °C 1011.9 hPa WNW 22.7 km/h 24.1 km/h 95% 0.2 mm 0 W/m2
19:06 11.8 °C 11 °C 1011.9 hPa WSW 7.9 km/h 12.9 km/h 95% 0.2 mm 0 W/m2
19:11 11.8 °C 11 °C 1011.9 hPa WNW 7.9 km/h 12.9 km/h 95% 0.2 mm 0 W/m2
19:16 11.8 °C 11 °C 1011.9 hPa WNW 9.7 km/h 17.7 km/h 95% 0.0 mm 0 W/m2
19:21 11.9 °C 11.1 °C 1011.9 hPa WSW 4.7 km/h 25.7 km/h 95% 0.0 mm 0 W/m2
19:26 11.8 °C 11 °C 1011.9 hPa South 11.1 km/h 19.3 km/h 95% 0.0 mm 0 W/m2
19:31 11.9 °C 11.1 °C 1012.2 hPa WNW 3.2 km/h 11.3 km/h 95% 0.0 mm 0 W/m2
19:36 11.9 °C 11.1 °C 1012.2 hPa SSW 7.9 km/h 30.6 km/h 95% 0.0 mm 0 W/m2
19:41 11.9 °C 11.1 °C 1012.2 hPa WNW 11.1 km/h 22.5 km/h 95% 0.0 mm 0 W/m2
19:46 11.9 °C 11.1 °C 1012.2 hPa WSW 7.9 km/h 12.9 km/h 95% 0.2 mm 0 W/m2
19:51 11.9 °C 11.1 °C 1012.2 hPa NW 4.7 km/h 14.5 km/h 95% 0.2 mm 0 W/m2
19:56 11.9 °C 11.1 °C 1012.2 hPa West 9.7 km/h 16.1 km/h 95% 0.2 mm 0 W/m2
20:01 12 °C 11.2 °C 1012.2 hPa WNW 4.7 km/h 12.9 km/h 95% 0.2 mm 0 W/m2
20:06 12 °C 11.2 °C 1012.2 hPa NNW 1.4 km/h 9.7 km/h 95% 0.2 mm 0 W/m2
20:11 12 °C 11.2 °C 1012.2 hPa NW 4.7 km/h 9.7 km/h 95% 0.2 mm 0 W/m2
20:16 12 °C 11.2 °C 1012.2 hPa West 13 km/h 16.1 km/h 95% 0.2 mm 0 W/m2
20:21 12.1 °C 11.3 °C 1012.5 hPa WSW 11.1 km/h 17.7 km/h 95% 0.2 mm 0 W/m2
20:26 12.1 °C 11.3 °C 1012.5 hPa NNW 3.2 km/h 16.1 km/h 95% 0.2 mm 0 W/m2
20:31 12.1 °C 11.3 °C 1012.5 hPa West 11.1 km/h 14.5 km/h 95% 0.2 mm 0 W/m2
20:36 12.1 °C 11.3 °C 1012.5 hPa WNW 11.1 km/h 17.7 km/h 95% 0.2 mm 0 W/m2
20:41 12.2 °C 11.4 °C 1012.5 hPa NW 9.7 km/h 12.9 km/h 95% 0.2 mm 0 W/m2
20:46 12.2 °C 11.4 °C 1012.2 hPa NNE 6.4 km/h 9.7 km/h 95% 0.0 mm 0 W/m2
20:51 12.2 °C 11.4 °C 1012.5 hPa West 11.1 km/h 14.5 km/h 95% 0.0 mm 0 W/m2
20:56 12.2 °C 11.4 °C 1012.5 hPa WNW 4.7 km/h 20.9 km/h 95% 0.0 mm 0 W/m2
21:01 12.2 °C 11.4 °C 1012.5 hPa West 9.7 km/h 14.5 km/h 95% 0.0 mm 0 W/m2
21:06 12.2 °C 11.4 °C 1012.5 hPa WSW 6.4 km/h 17.7 km/h 95% 0.0 mm 0 W/m2
21:11 12.2 °C 11.4 °C 1012.5 hPa West 4.7 km/h 17.7 km/h 95% 0.0 mm 0 W/m2
21:16 12.2 °C 11.4 °C 1012.9 hPa NW 3.2 km/h 14.5 km/h 95% 0.0 mm 0 W/m2
21:22 12.3 °C 11.5 °C 1012.9 hPa WNW 11.1 km/h 12.9 km/h 95% 0.0 mm 0 W/m2
21:27 12.3 °C 11.5 °C 1012.9 hPa WSW 4.7 km/h 14.5 km/h 95% 0.0 mm 0 W/m2
21:32 12.3 °C 11.5 °C 1012.9 hPa WSW 7.9 km/h 12.9 km/h 95% 0.0 mm 0 W/m2
21:37 12.3 °C 11.5 °C 1012.9 hPa NW 6.4 km/h 11.3 km/h 95% 0.0 mm 0 W/m2
21:42 12.3 °C 11.5 °C 1012.9 hPa WNW 17.7 km/h 20.9 km/h 95% 0.0 mm 0 W/m2
21:47 12.3 °C 11.5 °C 1012.9 hPa WSW 1.4 km/h 8 km/h 95% 0.0 mm 0 W/m2
21:52 12.3 °C 11.5 °C 1012.9 hPa WSW 7.9 km/h 17.7 km/h 95% 0.0 mm 0 W/m2
21:57 12.3 °C 11.5 °C 1012.9 hPa NNW 4.7 km/h 11.3 km/h 95% 0.0 mm 0 W/m2
22:02 12.4 °C 11.6 °C 1012.9 hPa NW 7.9 km/h 11.3 km/h 95% 0.0 mm 0 W/m2
22:07 12.4 °C 11.6 °C 1012.9 hPa NNW 9.7 km/h 20.9 km/h 95% 0.0 mm 0 W/m2
22:12 12.4 °C 11.6 °C 1012.9 hPa WNW 13 km/h 27.4 km/h 95% 0.0 mm 0 W/m2
22:17 12.5 °C 11.7 °C 1013.2 hPa SW 6.4 km/h 16.1 km/h 95% 0.0 mm 0 W/m2
22:22 12.5 °C 11.7 °C 1013.2 hPa WNW 7.9 km/h 27.4 km/h 95% 0.0 mm 0 W/m2
22:27 12.5 °C 11.7 °C 1013.2 hPa WSW 4.7 km/h 16.1 km/h 95% 0.0 mm 0 W/m2
22:32 12.5 °C 11.6 °C 1013.2 hPa WNW 9.7 km/h 20.9 km/h 94% 0.0 mm 0 W/m2
22:37 12.5 °C 11.6 °C 1013.2 hPa NW 3.2 km/h 8 km/h 94% 0.0 mm 0 W/m2
22:42 12.5 °C 11.6 °C 1013.2 hPa NW 11.1 km/h 22.5 km/h 94% 0.0 mm 0 W/m2
22:47 12.5 °C 11.6 °C 1013.2 hPa West 13 km/h 12.9 km/h 94% 0.0 mm 0 W/m2
22:52 12.5 °C 11.7 °C 1013.2 hPa NW 6.4 km/h 22.5 km/h 95% 0.0 mm 0 W/m2
22:57 12.5 °C 11.7 °C 1013.2 hPa West 3.2 km/h 14.5 km/h 95% 0.2 mm 0 W/m2
23:02 12.5 °C 11.7 °C 1013.2 hPa NW 7.9 km/h 12.9 km/h 95% 0.2 mm 0 W/m2
23:07 12.5 °C 11.7 °C 1013.2 hPa North 6.4 km/h 6.4 km/h 95% 0.2 mm 0 W/m2
23:12 12.5 °C 11.7 °C 1013.2 hPa NW 13 km/h 14.5 km/h 95% 0.2 mm 0 W/m2
23:17 12.5 °C 11.7 °C 1013.2 hPa NW 13 km/h 29 km/h 95% 0.2 mm 0 W/m2
23:22 12.5 °C 11.7 °C 1013.2 hPa WNW 14.3 km/h 17.7 km/h 95% 0.2 mm 0 W/m2
23:27 12.5 °C 11.6 °C 1013.2 hPa WNW 20.9 km/h 29 km/h 94% 0.2 mm 0 W/m2
23:32 12.5 °C 11.6 °C 1013.2 hPa NNW 4.7 km/h 19.3 km/h 94% 0.2 mm 0 W/m2
23:37 12.5 °C 11.6 °C 1013.2 hPa NNW 20.9 km/h 20.9 km/h 94% 0.2 mm 0 W/m2
23:42 12.6 °C 11.7 °C 1013.2 hPa NW 7.9 km/h 25.7 km/h 94% 0.2 mm 0 W/m2
23:47 12.6 °C 11.7 °C 1013.2 hPa WNW 11.1 km/h 17.7 km/h 94% 0.2 mm 0 W/m2
23:52 12.6 °C 11.7 °C 1013.2 hPa West 13 km/h 17.7 km/h 94% 0.2 mm 0 W/m2
23:57 12.6 °C 11.7 °C 1013.2 hPa West 11.1 km/h 17.7 km/h 94% 0.0 mm 0 W/m2
Juneau County Weather
Compliments of Weather Underground - 4 mb